This is the latest recevied weather packets stored in our database for station/object KO4DYK. If no packets are shown the sender has not sent any weather packets the latest 10 day(s).
| Time | Temp. | Humidity | Pressure | Rain* | Wind** | Luminosity | Snow |
|---|---|---|---|---|---|---|---|
| 1777769825 | 15° C | 55% | 1022.1 hPa | 0 mm | - | 0 W/m² | - |
| 1777769522 | 15.56° C | 54% | 1021.8 hPa | 0 mm | - | 0 W/m² | - |
| 1777769218 | 15.56° C | 50% | 1021.8 hPa | 0 mm | - | 0 W/m² | - |
| 1777768917 | 16.11° C | 49% | 1021.8 hPa | 0 mm | - | 3 W/m² | - |
| 1777768614 | 16.11° C | 47% | 1021.8 hPa | 0 mm | - | 4 W/m² | - |
| 1777768311 | 16.11° C | 48% | 1021.7 hPa | 0 mm | - | 7 W/m² | - |
| 1777768007 | 16.67° C | 50% | 1021.7 hPa | 0 mm | - | 11 W/m² | - |
| 1777767704 | 16.67° C | 49% | 1021.6 hPa | 0 mm | - | 13 W/m² | - |
| 1777767400 | 16.67° C | 51% | 1021.5 hPa | 0 mm | - | 16 W/m² | - |
| 1777767097 | 16.67° C | 50% | 1021.4 hPa | 0 mm | - | 19 W/m² | - |
| 1777766795 | 17.22° C | 47% | 1021.4 hPa | 0 mm | - | 23 W/m² | - |
| 1777766492 | 17.22° C | 46% | 1021.1 hPa | 0 mm | - | 25 W/m² | - |
| 1777766188 | 17.78° C | 46% | 1021.1 hPa | 0 mm | - | 29 W/m² | - |
| 1777765887 | 17.78° C | 44% | 1021.3 hPa | 0 mm | - | 32 W/m² | - |
| 1777765582 | 17.78° C | 44% | 1021.1 hPa | 0 mm | - | 36 W/m² | - |
| 1777765280 | 17.78° C | 43% | 1021 hPa | 0 mm | - | 44 W/m² | - |
| 1777764975 | 18.33° C | 44% | 1021.1 hPa | 0 mm | - | 45 W/m² | - |
| 1777764673 | 18.33° C | 44% | 1020.9 hPa | 0 mm | - | 44 W/m² | - |
| 1777764368 | 18.33° C | 43% | 1020.9 hPa | 0 mm | - | 48 W/m² | - |
| 1777764066 | 18.33° C | 43% | 1020.9 hPa | 0 mm | - | 69 W/m² | - |
| 1777763763 | 18.33° C | 42% | 1020.8 hPa | 0 mm | - | 70 W/m² | - |
| 1777763461 | 18.33° C | 42% | 1020.9 hPa | 0 mm | - | 75 W/m² | - |
| 1777763159 | 18.33° C | 42% | 1020.8 hPa | 0 mm | - | 74 W/m² | - |
| 1777762857 | 18.33° C | 42% | 1020.9 hPa | 0 mm | - | 89 W/m² | - |
| 1777762552 | 18.33° C | 43% | 1020.8 hPa | 0 mm | - | 80 W/m² | - |
* Rain latest hour (hover to see other rain measurements)
** Current wind speed in m/s (hover to see current wind gust speed)